SCP
0 0 0 0 0 0 0 1 2 3 4 4 4 5 4 4 4 3 2 1 2 2 2 2 2 2 2 1 1 1 1 1 0 1 1 1 1 0 1 1 1 0 0
0 0 0 0 0 0 0 1 2 4 4 6 6 5 4 4 4 4 3 3 2 3 3 3 2 1 1 2 2 2 2 2 1 2 1 0 1 1 1 1 0 1 0
0 0 0 0 0 0 0 0 2 5 6 6 6 6 4 4 3 2 2 1 2 2 3 3 4 2 2 2 2 3 4 4 2 3 3 1 0 1 1 1 1 1 1
0 0 0 0 0 0 0 0 1 4 5 8 9 6 5 4 3 3 2 2 2 2 2 3 3 3 3 2 3 4 5 6 7 3 1 1 1 1 0 1 0 0 1
0 0 0 0 0 0 0 0 1 2 4 7 8 7 6 4 4 3 3 3 2 2 2 2 2 3 3 3 3 4 4 5 5 4 4 3 1 0 0 0 1 1 1
0 0 0 0 0 0 0 0 1 2 4 5 6 7 5 5 5 5 5 5 4 3 3 2 3 3 3 4 4 2 0 1 0 0 0 -0 0 1 1 2 2 1 1
0 0 0 0 0 0 0 0 1 2 3 3 3 3 4 4 4 5 5 6 5 5 4 4 3 3 3 2 1 2 1 0 0 0 0 1 1 1 1 2 1 2 1
0 0 0 -0 0 0 0 0 0 1 3 3 4 4 4 5 5 4 4 4 4 4 5 4 3 3 2 2 2 2 1 0 0 -0 0 0 1 1 2 3 2 1 1
0 0 0 -0 0 0 0 0 0 1 2 3 4 3 3 3 2 3 4 3 3 3 3 4 3 3 3 3 3 4 2 1 0 0 1 1 1 1 1 1 1 0 0
0 0 0 0 -0 -0 0 0 0 1 1 3 3 2 2 2 2 2 2 2 2 1 1 1 2 2 2 2 3 3 3 2 2 2 2 1 1 1 1 0 0 0 0
0 0 0 0 -0 -0 0 0 0 1 1 2 2 1 1 1 1 1 1 1 0 0 0 0 1 1 1 1 1 1 1 1 1 1 1 1 0 0 0 0 0 0 0
-0 0 0 0 0 0 0 0 0 0 1 1 1 1 1 0 0 0 0 0 0 0 0 0 0 0 0 1 1 0 0 0 1 0 1 0 0 0 1 1 0 0 0
0 -0 0 0 0 0 0 0 0 0 0 0 0 0 0 0 0 0 0 0 0 0 0 0 0 0 0 0 0 0 0 0 0 0 0 0 0 1 1 1 1 0 0
0 0 0 0 0 0 0 0 0 0 0 0 0 0 0 0 0 0 0 0 0 0 0 0 0 0 0 0 0 0 0 0 0 0 0 0 0 0 1 1 1 1 0
0 0 0 0 0 0 0 0 0 0 0 0 0 0 0 0 0 0 0 0 0 0 0 0 0 0 0 0 0 0 0 0 0 0 0 0 0 0 0 0 1 1 1
0 0 0 -0 -0 -0 0 0 0 0 0 0 0 0 0 0 0 0 0 0 0 0 0 0 0 0 0 0 0 0 0 0 0 0 0 0 0 0 0 0 0 0 1
-0 -0 -0 -0 -0 -0 -0 0 0 0 0 0 0 0 0 0 0 0 0 0 1 1 0 0 0 0 0 0 0 0 0 0 0 0 0 0 0 0 0 0 0 0 0
-0 -0 -0 -0 0 0 0 -0 -0 0 0 0 0 0 0 0 0 0 0 0 1 0 0 0 0 0 0 0 0 0 0 0 0 0 0 0 0 0 0 0 0 0 0
-0 0 0 0 -0 0 0 0 0 0 0 0 0 0 0 0 0 0 0 0 0 0 0 0 0 0 0 0 0 0 0 0 -0 -0 -0 0 0 0 0 0 0 0 0
-0 -0 -0 -0 0 0 0 0 0 0 0 0 0 0 0 0 0 0 0 0 0 0 0 0 0 0 0 0 0 0 0 -0 -0 -0 -0 0 0 0 0 0 0 0 0
0 0 -0 -0 -0 0 0 0 0 0 0 0 0 0 0 0 0 0 0 0 0 0 0 0 0 0 0 0 0 -0 -0 -0 -0 -0 -0 0 0 0 0 0 0 0 0
0 0 0 0 0 0 0 0 0 0 0 0 0 0 0 0 0 0 0 0 0 0 0 0 0 0 0 0 0 0 -0 0 0 0 0 0 0 0 0 0 0 0 0
0 0 0 0 0 0 0 0 -0 0 0 0 0 0 0 0 0 0 0 0 0 0 0 0 0 0 0 0 0 0 0 0 0 0 0 0 0 0 0 0 0 0 0
0 0 0 0 -0 0 0 0 0 0 0 0 0 0 0 0 0 0 0 0 0 0 0 0 0 0 0 0 0 0 -0 0 0 0 0 0 0 0 0 0 0 0 0
0 0 0 0 0 0 0 0 0 0 0 0 0 0 0 0 0 0 0 0 0 0 0 0 0 0 0 0 0 0 0 0 0 0 0 0 0 0 0 0 0 0 0
0 0 0 0 0 0 0 -0 -0 0 0 0 0 0 0 0 0 0 0 0 0 0 0 0 0 0 0 0 0 0 0 0 0 0 0 0 0 0 0 0 0 0 0
Wind_Speed_500mb
47 46 50 56 59 70 78 76 72 69 71 72 76 79 79 81 81 92 84 84 80 83 69 68 65 66 59 53 51 41 44 37 23 16 24 25 25 25 16 18 11 15 24
41 45 48 58 67 71 76 88 86 83 79 78 79 80 79 77 78 72 69 72 73 76 79 73 67 70 67 63 64 54 48 44 32 23 18 15 20 4 8 25 27 24 32
39 38 38 36 48 64 72 84 88 93 90 89 85 81 74 68 67 69 67 64 65 69 62 72 76 71 70 67 64 61 63 52 43 31 15 7 9 33 26 30 31 32 44
44 43 45 40 34 38 53 75 88 96 100 98 88 83 79 71 63 61 61 60 63 63 60 65 64 62 56 60 64 55 58 52 40 27 24 27 41 36 43 62 54 47 48
46 50 52 51 46 42 40 46 69 92 98 99 90 85 79 72 62 55 50 53 59 63 55 50 51 50 58 61 53 57 53 54 49 35 42 65 82 77 64 62 67 76 61
44 54 54 55 58 56 52 48 52 63 81 90 84 81 73 65 58 50 52 54 56 56 57 60 62 59 57 59 62 61 53 39 46 49 91 105 81 63 65 69 77 63 75
28 38 46 53 63 67 68 60 57 60 63 73 75 74 70 65 63 56 55 58 62 66 66 69 69 64 60 59 59 61 75 94 69 81 82 75 75 58 64 70 64 55 56
21 26 37 47 60 71 70 70 66 67 70 74 73 71 69 68 63 58 60 59 60 64 68 72 71 69 58 55 55 54 46 50 38 73 64 65 57 52 46 47 56 62 53
28 28 31 46 50 47 63 68 73 75 80 80 78 74 69 61 55 50 48 48 47 49 57 63 65 63 55 50 41 41 41 39 55 50 61 56 52 54 55 53 56 56 48
37 37 38 38 51 49 35 53 71 82 87 83 77 67 57 47 41 38 37 38 40 43 47 51 53 51 51 55 56 56 50 51 52 49 45 43 38 37 37 40 32 31 46
39 41 41 37 33 43 36 30 47 63 76 74 63 56 49 41 36 32 32 35 37 38 38 37 35 34 32 32 32 30 30 30 29 29 29 31 30 33 34 34 30 23 32
34 36 39 41 38 29 32 14 22 39 67 70 66 56 48 45 40 34 29 31 33 33 35 35 35 31 27 25 23 19 16 13 13 16 23 26 30 34 34 30 26 22 18
35 36 37 40 42 41 24 24 8 28 50 62 62 62 64 58 49 42 35 35 35 33 32 30 32 30 27 24 20 18 11 8 8 11 17 21 24 29 31 31 29 26 19
49 49 44 39 38 37 30 17 11 3 22 40 47 50 61 62 57 50 45 41 39 36 40 39 34 31 28 24 21 20 17 16 16 20 23 25 29 29 29 32 34 32 31
60 63 55 43 38 34 29 21 18 19 20 22 23 42 54 57 59 57 50 45 43 40 40 42 42 36 30 24 23 22 21 21 24 27 29 31 33 33 33 35 38 38 38
68 67 65 54 42 37 34 36 26 19 22 18 21 28 41 63 63 62 59 56 52 48 48 43 43 40 36 26 21 21 22 25 31 35 39 42 41 39 39 38 40 43 44
69 63 63 60 56 46 39 42 43 41 37 36 30 29 32 44 61 71 66 65 64 58 55 53 51 49 45 40 32 30 31 35 40 46 48 52 46 43 44 46 43 43 45
71 72 71 71 70 69 62 57 54 53 55 52 52 49 43 40 41 51 63 70 71 69 63 59 55 50 48 44 41 41 43 50 52 53 53 53 52 47 46 47 50 46 45
86 89 84 86 89 85 78 79 75 65 61 62 58 56 58 52 45 44 55 58 64 66 66 62 59 55 51 49 48 51 57 62 61 60 59 54 49 48 46 46 50 52 49
103 76 81 88 89 99 93 91 94 83 80 70 65 60 59 64 66 62 58 60 60 61 63 64 63 59 57 57 56 59 62 61 64 65 60 54 49 47 49 48 51 59 52
96 99 96 97 100 91 86 92 94 95 88 76 71 67 65 68 74 79 75 70 67 61 66 66 68 68 68 65 65 64 63 66 58 47 45 48 49 43 49 46 50 50 31
92 92 94 98 95 89 86 99 99 95 91 82 79 77 75 71 63 71 83 77 70 76 74 74 77 73 78 76 72 69 72 69 63 54 44 44 48 44 48 45 40 32 30
92 88 85 88 87 78 75 90 106 90 83 85 90 85 80 75 68 68 67 69 67 65 63 61 61 58 55 76 71 67 65 65 62 59 49 45 48 45 48 40 35 36 32
92 88 82 78 80 77 74 78 69 75 84 83 79 73 74 72 68 66 66 68 69 73 74 69 62 56 52 69 70 68 67 64 60 55 49 46 51 49 52 43 39 43 37
88 82 78 78 78 75 75 77 72 59 74 78 75 71 69 69 65 62 64 69 74 75 71 68 62 57 54 50 56 59 56 44 50 52 48 53 51 53 55 49 48 47 40
74 74 74 69 71 57 58 55 63 61 59 66 66 73 72 71 69 66 57 53 59 63 64 62 55 50 54 49 51 47 47 49 53 52 52 55 49 57 58 51 54 47 40
Wind_Direction_500mb
287 287 275 264 249 244 239 233 231 228 226 224 226 231 235 237 232 233 232 230 227 238 240 240 239 243 239 234 239 241 256 250 258 268 292 315 303 308 276 197 268 294 337
280 284 284 270 251 241 241 236 235 235 232 231 234 234 238 240 242 238 234 235 226 222 231 240 248 248 242 241 239 239 242 246 239 246 298 313 311 173 9 238 304 299 293
270 284 291 290 262 242 236 235 233 232 234 235 234 233 234 236 237 234 230 227 227 223 225 226 236 247 252 246 244 238 234 234 240 235 224 217 274 325 323 308 295 310 325
272 280 289 285 280 273 254 238 233 233 234 235 235 234 236 231 233 234 229 225 222 225 229 233 237 248 250 249 242 241 240 227 233 227 252 255 284 292 299 296 296 298 297
272 277 277 277 274 271 269 252 237 233 234 234 233 231 231 234 233 229 226 222 226 228 231 232 239 244 245 246 245 237 232 227 226 239 272 290 287 287 275 278 281 290 282
272 276 279 276 271 270 265 257 244 233 232 234 231 230 233 232 227 223 215 217 222 228 235 238 247 251 251 247 244 243 243 238 265 256 278 275 275 276 276 273 278 279 285
300 294 293 291 280 277 270 258 246 235 226 226 226 227 229 231 233 231 230 227 227 230 234 240 245 251 252 251 252 250 249 251 257 260 258 270 267 267 271 276 282 280 284
354 346 333 310 289 273 263 255 247 235 228 224 223 221 223 223 223 224 226 229 230 233 235 238 244 249 249 252 255 250 251 231 218 244 253 258 264 269 273 281 286 287 283
336 336 353 360 346 299 262 243 240 237 230 227 221 217 213 213 210 209 212 221 229 231 231 234 239 243 240 243 241 233 232 239 230 236 245 256 262 264 269 273 276 286 289
337 323 322 334 360 346 304 248 229 231 230 222 215 208 200 196 197 205 216 224 228 227 225 226 231 236 237 234 234 234 230 226 228 231 241 253 261 272 277 280 281 290 295
338 344 337 329 334 359 337 288 247 229 222 210 199 193 192 197 200 198 200 205 207 209 212 213 212 213 212 212 211 210 212 217 227 238 249 259 271 278 282 292 284 290 299
327 335 344 349 350 348 357 310 242 210 201 192 189 189 191 186 182 177 188 195 199 203 209 208 205 203 201 199 196 199 202 215 240 262 273 283 288 288 289 285 273 276 306
320 329 337 342 346 345 341 350 325 219 196 195 195 192 190 185 183 182 181 186 190 200 199 195 192 192 194 194 196 188 198 228 267 293 306 300 307 303 299 285 274 266 289
321 325 330 330 331 337 334 300 297 245 224 232 227 217 204 198 196 195 194 196 201 209 211 208 205 203 204 208 215 221 235 253 275 288 296 303 299 308 298 286 281 271 269
316 318 320 322 323 320 314 311 279 255 237 228 240 239 227 216 212 209 210 212 212 213 208 213 212 213 213 217 226 235 248 262 278 284 293 296 304 291 300 291 283 275 262
309 309 309 310 313 307 302 289 292 283 276 241 238 245 234 229 231 225 218 219 220 217 213 209 212 212 212 217 225 233 250 267 280 289 296 298 298 304 287 293 285 274 264
299 299 299 297 299 297 287 288 286 275 266 255 250 243 242 236 230 228 226 221 221 221 215 211 214 215 218 228 234 245 265 279 288 295 297 294 294 297 295 290 296 275 265
299 298 295 291 290 290 282 280 278 279 275 262 255 245 248 236 228 227 225 223 216 215 216 214 217 222 228 235 246 260 275 285 291 298 299 289 284 291 297 295 295 286 279
295 289 287 283 283 282 281 281 278 273 264 257 253 248 249 243 226 220 219 214 213 213 216 222 228 233 241 248 257 267 278 284 293 298 302 285 275 282 295 292 292 286 279
298 282 294 285 276 273 277 273 269 264 258 253 248 245 243 241 233 235 227 214 213 217 219 226 232 241 250 257 263 270 277 287 293 297 299 280 264 274 288 287 285 286 284
288 282 286 282 278 273 270 265 262 257 254 252 245 241 239 239 238 237 241 235 224 227 230 234 243 251 256 261 265 273 281 286 287 282 273 268 264 271 286 277 280 282 269
296 287 284 284 281 274 269 264 257 256 254 247 240 239 237 235 236 238 240 240 237 236 238 243 247 252 256 260 266 272 278 283 280 273 262 256 258 268 282 275 279 250 219
301 296 289 287 287 285 271 261 259 255 249 244 238 235 237 234 231 230 236 237 235 233 235 238 241 242 249 259 266 273 276 276 266 266 252 247 256 268 277 271 258 228 208
308 309 303 294 288 291 285 275 270 256 247 238 234 230 227 225 225 226 227 227 228 230 234 236 236 239 243 258 264 271 275 272 258 245 244 245 255 264 270 264 235 213 200
317 318 311 308 303 304 290 281 273 258 238 235 229 224 219 217 220 223 226 226 227 228 231 232 232 235 241 246 261 268 268 261 250 233 245 252 258 261 264 255 222 213 207
327 328 325 327 322 320 314 297 255 241 232 221 220 222 225 221 218 217 217 215 216 224 225 219 221 237 244 246 257 249 245 234 236 244 249 255 258 260 257 244 216 208 207
Wind_Speed_850mb
47 46 50 56 59 70 78 76 72 69 71 72 76 79 79 81 81 92 84 84 80 83 69 68 65 66 59 53 51 41 44 37 23 16 24 25 25 25 16 18 11 15 24
41 45 48 58 67 71 76 88 86 83 79 78 79 80 79 77 78 72 69 72 73 76 79 73 67 70 67 63 64 54 48 44 32 23 18 15 20 4 8 25 27 24 32
39 38 38 36 48 64 72 84 88 93 90 89 85 81 74 68 67 69 67 64 65 69 62 72 76 71 70 67 64 61 63 52 43 31 15 7 9 33 26 30 31 32 44
44 43 45 40 34 38 53 75 88 96 100 98 88 83 79 71 63 61 61 60 63 63 60 65 64 62 56 60 64 55 58 52 40 27 24 27 41 36 43 62 54 47 48
46 50 52 51 46 42 40 46 69 92 98 99 90 85 79 72 62 55 50 53 59 63 55 50 51 50 58 61 53 57 53 54 49 35 42 65 82 77 64 62 67 76 61
44 54 54 55 58 56 52 48 52 63 81 90 84 81 73 65 58 50 52 54 56 56 57 60 62 59 57 59 62 61 53 39 46 49 91 105 81 63 65 69 77 63 75
28 38 46 53 63 67 68 60 57 60 63 73 75 74 70 65 63 56 55 58 62 66 66 69 69 64 60 59 59 61 75 94 69 81 82 75 75 58 64 70 64 55 56
21 26 37 47 60 71 70 70 66 67 70 74 73 71 69 68 63 58 60 59 60 64 68 72 71 69 58 55 55 54 46 50 38 73 64 65 57 52 46 47 56 62 53
28 28 31 46 50 47 63 68 73 75 80 80 78 74 69 61 55 50 48 48 47 49 57 63 65 63 55 50 41 41 41 39 55 50 61 56 52 54 55 53 56 56 48
37 37 38 38 51 49 35 53 71 82 87 83 77 67 57 47 41 38 37 38 40 43 47 51 53 51 51 55 56 56 50 51 52 49 45 43 38 37 37 40 32 31 46
39 41 41 37 33 43 36 30 47 63 76 74 63 56 49 41 36 32 32 35 37 38 38 37 35 34 32 32 32 30 30 30 29 29 29 31 30 33 34 34 30 23 32
34 36 39 41 38 29 32 14 22 39 67 70 66 56 48 45 40 34 29 31 33 33 35 35 35 31 27 25 23 19 16 13 13 16 23 26 30 34 34 30 26 22 18
35 36 37 40 42 41 24 24 8 28 50 62 62 62 64 58 49 42 35 35 35 33 32 30 32 30 27 24 20 18 11 8 8 11 17 21 24 29 31 31 29 26 19
49 49 44 39 38 37 30 17 11 3 22 40 47 50 61 62 57 50 45 41 39 36 40 39 34 31 28 24 21 20 17 16 16 20 23 25 29 29 29 32 34 32 31
60 63 55 43 38 34 29 21 18 19 20 22 23 42 54 57 59 57 50 45 43 40 40 42 42 36 30 24 23 22 21 21 24 27 29 31 33 33 33 35 38 38 38
68 67 65 54 42 37 34 36 26 19 22 18 21 28 41 63 63 62 59 56 52 48 48 43 43 40 36 26 21 21 22 25 31 35 39 42 41 39 39 38 40 43 44
69 63 63 60 56 46 39 42 43 41 37 36 30 29 32 44 61 71 66 65 64 58 55 53 51 49 45 40 32 30 31 35 40 46 48 52 46 43 44 46 43 43 45
71 72 71 71 70 69 62 57 54 53 55 52 52 49 43 40 41 51 63 70 71 69 63 59 55 50 48 44 41 41 43 50 52 53 53 53 52 47 46 47 50 46 45
86 89 84 86 89 85 78 79 75 65 61 62 58 56 58 52 45 44 55 58 64 66 66 62 59 55 51 49 48 51 57 62 61 60 59 54 49 48 46 46 50 52 49
103 76 81 88 89 99 93 91 94 83 80 70 65 60 59 64 66 62 58 60 60 61 63 64 63 59 57 57 56 59 62 61 64 65 60 54 49 47 49 48 51 59 52
96 99 96 97 100 91 86 92 94 95 88 76 71 67 65 68 74 79 75 70 67 61 66 66 68 68 68 65 65 64 63 66 58 47 45 48 49 43 49 46 50 50 31
92 92 94 98 95 89 86 99 99 95 91 82 79 77 75 71 63 71 83 77 70 76 74 74 77 73 78 76 72 69 72 69 63 54 44 44 48 44 48 45 40 32 30
92 88 85 88 87 78 75 90 106 90 83 85 90 85 80 75 68 68 67 69 67 65 63 61 61 58 55 76 71 67 65 65 62 59 49 45 48 45 48 40 35 36 32
92 88 82 78 80 77 74 78 69 75 84 83 79 73 74 72 68 66 66 68 69 73 74 69 62 56 52 69 70 68 67 64 60 55 49 46 51 49 52 43 39 43 37
88 82 78 78 78 75 75 77 72 59 74 78 75 71 69 69 65 62 64 69 74 75 71 68 62 57 54 50 56 59 56 44 50 52 48 53 51 53 55 49 48 47 40
74 74 74 69 71 57 58 55 63 61 59 66 66 73 72 71 69 66 57 53 59 63 64 62 55 50 54 49 51 47 47 49 53 52 52 55 49 57 58 51 54 47 40
Wind_Direction_850mb
287 287 275 264 249 244 239 233 231 228 226 224 226 231 235 237 232 233 232 230 227 238 240 240 239 243 239 234 239 241 256 250 258 268 292 315 303 308 276 197 268 294 337
280 284 284 270 251 241 241 236 235 235 232 231 234 234 238 240 242 238 234 235 226 222 231 240 248 248 242 241 239 239 242 246 239 246 298 313 311 173 9 238 304 299 293
270 284 291 290 262 242 236 235 233 232 234 235 234 233 234 236 237 234 230 227 227 223 225 226 236 247 252 246 244 238 234 234 240 235 224 217 274 325 323 308 295 310 325
272 280 289 285 280 273 254 238 233 233 234 235 235 234 236 231 233 234 229 225 222 225 229 233 237 248 250 249 242 241 240 227 233 227 252 255 284 292 299 296 296 298 297
272 277 277 277 274 271 269 252 237 233 234 234 233 231 231 234 233 229 226 222 226 228 231 232 239 244 245 246 245 237 232 227 226 239 272 290 287 287 275 278 281 290 282
272 276 279 276 271 270 265 257 244 233 232 234 231 230 233 232 227 223 215 217 222 228 235 238 247 251 251 247 244 243 243 238 265 256 278 275 275 276 276 273 278 279 285
300 294 293 291 280 277 270 258 246 235 226 226 226 227 229 231 233 231 230 227 227 230 234 240 245 251 252 251 252 250 249 251 257 260 258 270 267 267 271 276 282 280 284
354 346 333 310 289 273 263 255 247 235 228 224 223 221 223 223 223 224 226 229 230 233 235 238 244 249 249 252 255 250 251 231 218 244 253 258 264 269 273 281 286 287 283
336 336 353 360 346 299 262 243 240 237 230 227 221 217 213 213 210 209 212 221 229 231 231 234 239 243 240 243 241 233 232 239 230 236 245 256 262 264 269 273 276 286 289
337 323 322 334 360 346 304 248 229 231 230 222 215 208 200 196 197 205 216 224 228 227 225 226 231 236 237 234 234 234 230 226 228 231 241 253 261 272 277 280 281 290 295
338 344 337 329 334 359 337 288 247 229 222 210 199 193 192 197 200 198 200 205 207 209 212 213 212 213 212 212 211 210 212 217 227 238 249 259 271 278 282 292 284 290 299
327 335 344 349 350 348 357 310 242 210 201 192 189 189 191 186 182 177 188 195 199 203 209 208 205 203 201 199 196 199 202 215 240 262 273 283 288 288 289 285 273 276 306
320 329 337 342 346 345 341 350 325 219 196 195 195 192 190 185 183 182 181 186 190 200 199 195 192 192 194 194 196 188 198 228 267 293 306 300 307 303 299 285 274 266 289
321 325 330 330 331 337 334 300 297 245 224 232 227 217 204 198 196 195 194 196 201 209 211 208 205 203 204 208 215 221 235 253 275 288 296 303 299 308 298 286 281 271 269
316 318 320 322 323 320 314 311 279 255 237 228 240 239 227 216 212 209 210 212 212 213 208 213 212 213 213 217 226 235 248 262 278 284 293 296 304 291 300 291 283 275 262
309 309 309 310 313 307 302 289 292 283 276 241 238 245 234 229 231 225 218 219 220 217 213 209 212 212 212 217 225 233 250 267 280 289 296 298 298 304 287 293 285 274 264
299 299 299 297 299 297 287 288 286 275 266 255 250 243 242 236 230 228 226 221 221 221 215 211 214 215 218 228 234 245 265 279 288 295 297 294 294 297 295 290 296 275 265
299 298 295 291 290 290 282 280 278 279 275 262 255 245 248 236 228 227 225 223 216 215 216 214 217 222 228 235 246 260 275 285 291 298 299 289 284 291 297 295 295 286 279
295 289 287 283 283 282 281 281 278 273 264 257 253 248 249 243 226 220 219 214 213 213 216 222 228 233 241 248 257 267 278 284 293 298 302 285 275 282 295 292 292 286 279
298 282 294 285 276 273 277 273 269 264 258 253 248 245 243 241 233 235 227 214 213 217 219 226 232 241 250 257 263 270 277 287 293 297 299 280 264 274 288 287 285 286 284
288 282 286 282 278 273 270 265 262 257 254 252 245 241 239 239 238 237 241 235 224 227 230 234 243 251 256 261 265 273 281 286 287 282 273 268 264 271 286 277 280 282 269
296 287 284 284 281 274 269 264 257 256 254 247 240 239 237 235 236 238 240 240 237 236 238 243 247 252 256 260 266 272 278 283 280 273 262 256 258 268 282 275 279 250 219
301 296 289 287 287 285 271 261 259 255 249 244 238 235 237 234 231 230 236 237 235 233 235 238 241 242 249 259 266 273 276 276 266 266 252 247 256 268 277 271 258 228 208
308 309 303 294 288 291 285 275 270 256 247 238 234 230 227 225 225 226 227 227 228 230 234 236 236 239 243 258 264 271 275 272 258 245 244 245 255 264 270 264 235 213 200
317 318 311 308 303 304 290 281 273 258 238 235 229 224 219 217 220 223 226 226 227 228 231 232 232 235 241 246 261 268 268 261 250 233 245 252 258 261 264 255 222 213 207
327 328 325 327 322 320 314 297 255 241 232 221 220 222 225 221 218 217 217 215 216 224 225 219 221 237 244 246 257 249 245 234 236 244 249 255 258 260 257 244 216 208 207